This is the latest recevied weather packets stored in our database for station/object EA1CUE-WX. If no packets are shown the sender has not sent any weather packets the latest 10 day(s).
| Time | Temp. | Humidity | Pressure | Rain* | Wind** | Luminosity | Snow |
|---|---|---|---|---|---|---|---|
| 1787921330 | 18.89° C | 9% | 1021.7 hPa | 0 mm | - | - | - |
| 1787921030 | 18.89° C | 14% | 1021.6 hPa | 0 mm | - | - | - |
| 1787920730 | 18.89° C | 5% | 1021.6 hPa | 0 mm | - | - | - |
| 1787920430 | 18.89° C | 4% | 1021.5 hPa | 0 mm | - | - | - |
| 1787920130 | 18.33° C | 1% | 1021.3 hPa | 0 mm | - | - | - |
| 1787919830 | 17.78° C | 1% | 1021.5 hPa | 0 mm | - | - | - |
| 1787919530 | 17.78° C | 1% | 1021.5 hPa | 0 mm | - | - | - |
| 1787919230 | 17.78° C | 2% | 1021.5 hPa | 0 mm | - | - | - |
| 1787918930 | 18.33° C | 1% | 1021.4 hPa | 0 mm | - | - | - |
| 1787918630 | 17.78° C | 1% | 1021.3 hPa | 0 mm | - | - | - |
| 1787918330 | 17.22° C | 1% | 1021.3 hPa | 0 mm | - | - | - |
| 1787918030 | 17.22° C | 1% | 1021.4 hPa | 0 mm | - | - | - |
| 1787917730 | 17.22° C | 1% | 1021.4 hPa | 0 mm | - | - | - |
| 1787917430 | 17.22° C | 1% | 1021.3 hPa | 0 mm | - | - | - |
| 1787917130 | 17.22° C | 1% | 1021.3 hPa | 0 mm | - | - | - |
| 1787916830 | 17.22° C | 1% | 1021.3 hPa | 0 mm | - | - | - |
| 1787916530 | 17.22° C | 1% | 1021.2 hPa | 0 mm | - | - | - |
| 1787916230 | 16.67° C | 1% | 1021.2 hPa | 0 mm | - | - | - |
| 1787915930 | 16.11° C | 1% | 1021.2 hPa | 0 mm | - | - | - |
| 1787915630 | 16.11° C | 1% | 1021.2 hPa | 0 mm | - | - | - |
| 1787915330 | 16.11° C | 1% | 1021.1 hPa | 0 mm | - | - | - |
| 1787915030 | 15.56° C | 1% | 1021.2 hPa | 0 mm | - | - | - |
| 1787914730 | 15.56° C | 1% | 1021.2 hPa | 0 mm | - | - | - |
| 1787914430 | 15.56° C | 1% | 1021.1 hPa | 0 mm | - | - | - |
| 1787914130 | 15.56° C | 1% | 1021.1 hPa | 0 mm | - | - | - |
* Rain latest hour (hover to see other rain measurements)
** Current wind speed in m/s (hover to see current wind gust speed)